Edinburgh Airport, United Kingdom

11:17 AM BST on May 21, 2018 (GMT +0100)
Edinburgh Airport

Weather History for EGPH - November, 2012

Change the Weather History Date:

Tuesday, November 20, 2012

  Actual Average Record
Temperature  
Mean Temperature 52 °F -  
Max Temperature 57 °F 45 °F 57 °F (2012)
Min Temperature 46 °F 35 °F 21 °F (2004)
Degree Days  
Heating Degree Days 14    
Growing Degree Days 2 (Base 50)    
Moisture  
Dew Point 45 °F    
Average Humidity 78    
Maximum Humidity 87    
Minimum Humidity 71    
Precipitation  
Precipitation 0.00 in 0.08 in - ()
Sea Level Pressure  
Sea Level Pressure 29.44 in    
Wind  
Wind Speed 10 mph ()    
Max Wind Speed 28 mph    
Max Gust Speed 39 mph    
Visibility 6.2 miles    
Events      
Averages and records for this station are not official NWS values.
T = Trace of Precipitation, MM = Missing Value Source: Averaged Metar Reports

Daily Weather History Graph

Daily Weather History Graph

Search for Another Location

Airport or City:

Astronomy

Nov. 20, 2012 Rise Set
Actual Time 8:00 AM GMT 3:57 PM GMT
Civil Twilight 7:17 AM GMT 4:40 PM GMT
Nautical Twilight 6:30 AM GMT 5:26 PM GMT
Astronomical Twilight 5:46 AM GMT 6:10 PM GMT
Moon 12:51 PM GMT (11/20) 11:55 PM GMT (11/20)
Length of Visible Light 9h 23m
Length of Day
7h 56m
Waxing Crescent, 49% of the Moon is Illuminated
Nov 20
Waxing Crescent
Nov 20
First Quarter
Nov 28
Full
Dec 6
Last Quarter
Dec 13
New

Hourly Weather History & Observations

Time (GMT) Temp. Windchill Dew Point Humidity Pressure Visibility Wind Dir Wind Speed Gust Speed Precip Events Conditions
12:20 AM 50.0 °F - 44.6 °F 82% 29.50 in 6.2 mi WSW 9.2 mph - N/A   Mostly Cloudy
12:50 AM 50.0 °F - 44.6 °F 82% 29.50 in 6.2 mi SW 8.1 mph - N/A   Mostly Cloudy
1:20 AM 51.8 °F - 44.6 °F 76% 29.50 in 6.2 mi SW 6.9 mph - N/A   Mostly Cloudy
1:50 AM 50.0 °F - 44.6 °F 82% 29.50 in 6.2 mi SW 6.9 mph - N/A   Mostly Cloudy
2:20 AM 50.0 °F - 44.6 °F 82% 29.50 in 6.2 mi SW 4.6 mph - N/A   Mostly Cloudy
2:50 AM 50.0 °F - 44.6 °F 82% 29.50 in 6.2 mi SSW 6.9 mph - N/A   Mostly Cloudy
3:20 AM 51.8 °F - 44.6 °F 76% 29.50 in 6.2 mi South 6.9 mph - N/A   Overcast
3:50 AM 50.0 °F - 44.6 °F 82% 29.50 in 6.2 mi SSW 8.1 mph - N/A   Mostly Cloudy
4:20 AM 50.0 °F - 46.4 °F 87% 29.47 in 6.2 mi South 5.8 mph - N/A   Scattered Clouds
4:50 AM 50.0 °F - 46.4 °F 87% 29.47 in 6.2 mi SSW 6.9 mph - N/A   Scattered Clouds
5:20 AM 51.8 °F - 46.4 °F 82% 29.47 in 6.2 mi South 5.8 mph - N/A   Scattered Clouds
5:50 AM 50.0 °F - 46.4 °F 87% 29.47 in 6.2 mi SSE 5.8 mph - N/A   Mostly Cloudy
6:20 AM 51.8 °F - 46.4 °F 82% 29.47 in 6.2 mi SSE 4.6 mph - N/A   Mostly Cloudy
6:50 AM 51.8 °F - 46.4 °F 82% 29.47 in 6.2 mi SSE 5.8 mph - N/A   Mostly Cloudy
7:20 AM 51.8 °F - 46.4 °F 82% 29.47 in 6.2 mi South 9.2 mph - N/A   Mostly Cloudy
7:50 AM 51.8 °F - 46.4 °F 82% 29.44 in 6.2 mi South 10.4 mph - N/A   Scattered Clouds
8:20 AM 51.8 °F - 46.4 °F 82% 29.44 in 6.2 mi ESE 5.8 mph - N/A   Mostly Cloudy
8:50 AM 51.8 °F - 46.4 °F 82% 29.44 in 6.2 mi SSE 4.6 mph - N/A   Mostly Cloudy
9:20 AM 51.8 °F - 46.4 °F 82% 29.42 in 6.2 mi SSE 9.2 mph - N/A   Mostly Cloudy
9:50 AM 53.6 °F - 48.2 °F 82% 29.42 in 6.2 mi SSE 11.5 mph - N/A   Mostly Cloudy
10:20 AM 53.6 °F - 48.2 °F 82% 29.42 in 6.2 mi SE 10.4 mph - N/A   Mostly Cloudy
10:50 AM 53.6 °F - 48.2 °F 82% 29.39 in 6.2 mi SE 11.5 mph - N/A   Mostly Cloudy
11:20 AM 55.4 °F - 48.2 °F 77% 29.36 in 6.2 mi SE 11.5 mph - N/A   Mostly Cloudy
11:50 AM 55.4 °F - 48.2 °F 77% 29.36 in 6.2 mi SE 9.2 mph - N/A   Mostly Cloudy
12:20 PM 55.4 °F - 50.0 °F 82% 29.36 in 6.2 mi SE 9.2 mph - N/A   Mostly Cloudy
12:50 PM 57.2 °F - 50.0 °F 77% 29.36 in 6.2 mi South 10.4 mph - N/A   Mostly Cloudy
1:20 PM 57.2 °F - 50.0 °F 77% 29.33 in 6.2 mi South 16.1 mph - N/A   Scattered Clouds
1:50 PM 57.2 °F - 50.0 °F 77% 29.33 in 6.2 mi SSW 12.7 mph - N/A   Mostly Cloudy
2:20 PM 57.2 °F - 50.0 °F 77% 29.33 in 6.2 mi SSW 16.1 mph - N/A   Mostly Cloudy
2:50 PM 57.2 °F - 50.0 °F 77% 29.33 in 6.2 mi SSW 18.4 mph - N/A   Scattered Clouds
3:20 PM 57.2 °F - 50.0 °F 77% 29.36 in 6.2 mi SW 15.0 mph - N/A   Scattered Clouds
3:50 PM 55.4 °F - 46.4 °F 72% 29.36 in 6.2 mi SW 19.6 mph - N/A   Partly Cloudy
4:20 PM 51.8 °F - 44.6 °F 76% 29.39 in 6.2 mi SW 16.1 mph - N/A   Partly Cloudy
4:50 PM 50.0 °F - 42.8 °F 76% 29.39 in - SW 17.3 mph - N/A   Clear
5:20 PM 50.0 °F - 41.0 °F 71% 29.42 in - WSW 9.2 mph - N/A   Clear
5:50 PM 51.8 °F - 42.8 °F 71% 29.39 in - SSW 21.9 mph - N/A   Clear
6:20 PM 51.8 °F - 42.8 °F 71% 29.39 in - SSW 27.6 mph 39.1 mph N/A   Clear
6:50 PM 51.8 °F - 42.8 °F 71% 29.42 in - SSW 23.0 mph 34.5 mph N/A   Clear
7:20 PM 51.8 °F - 42.8 °F 71% 29.44 in - SSW 24.2 mph - N/A   Clear
7:50 PM 50.0 °F - 42.8 °F 76% 29.44 in 6.2 mi SW 18.4 mph - N/A   Partly Cloudy
8:20 PM 50.0 °F - 42.8 °F 76% 29.47 in 6.2 mi SW 17.3 mph - N/A   Partly Cloudy
8:50 PM 50.0 °F - 42.8 °F 76% 29.47 in 6.2 mi SW 19.6 mph 31.1 mph N/A   Partly Cloudy
9:20 PM 48.2 °F - 39.2 °F 71% 29.47 in 6.2 mi SW 20.7 mph - N/A   Partly Cloudy
9:50 PM 48.2 °F - 39.2 °F 71% 29.47 in 6.2 mi SSW 18.4 mph - N/A   Partly Cloudy
10:20 PM 48.2 °F - 39.2 °F 71% 29.50 in 6.2 mi SW 23.0 mph - N/A   Scattered Clouds
10:50 PM 48.2 °F - 39.2 °F 71% 29.50 in 6.2 mi SW 23.0 mph 35.7 mph N/A   Scattered Clouds
11:20 PM 46.4 °F 39.0 °F 39.2 °F 76% 29.53 in 6.2 mi SW 19.6 mph - N/A   Partly Cloudy
11:50 PM 48.2 °F - 39.2 °F 71% 29.56 in 6.2 mi SW 20.7 mph - N/A   Mostly Cloudy